QPF
0.00 0.00 0.00 0.00 0.00 0.00 0.00 0.00 0.00 0.00 0.00 0.00 0.00 0.00 0.00 0.00 0.00 0.00 0.00 0.00 0.00 0.00 0.00 0.00 0.00 0.01 0.00 0.00 0.01 0.01 0.02 0.02 0.01 0.02 0.03 0.05 0.07 0.07 0.09 0.12 0.14 0.15 0.12
0.00 0.00 0.00 0.00 0.00 0.00 0.00 0.00 0.00 0.00 0.00 0.00 0.00 0.00 0.00 0.00 0.00 0.00 0.00 0.00 0.00 0.00 0.00 0.01 0.01 0.01 0.00 0.00 0.00 0.01 0.01 0.02 0.01 0.01 0.04 0.06 0.06 0.05 0.07 0.11 0.14 0.18 0.16
0.00 0.00 0.00 0.00 0.00 0.00 0.00 0.00 0.00 0.00 0.00 0.00 0.00 0.00 0.00 0.00 0.00 0.00 0.00 0.00 0.00 0.00 0.00 0.00 0.01 0.01 0.01 0.01 0.01 0.01 0.01 0.02 0.02 0.02 0.03 0.05 0.05 0.04 0.06 0.10 0.12 0.16 0.18
0.00 0.00 0.00 0.00 0.00 0.00 0.00 0.00 0.00 0.00 0.00 0.00 0.00 0.00 0.00 0.00 0.00 0.00 0.00 0.00 0.00 0.00 0.00 0.00 0.00 0.00 0.01 0.02 0.01 0.01 0.01 0.02 0.03 0.02 0.02 0.04 0.05 0.04 0.04 0.08 0.11 0.14 0.16
0.00 0.00 0.00 0.00 0.00 0.00 0.00 0.00 0.00 0.00 0.00 0.00 0.00 0.00 0.00 0.00 0.00 0.00 0.00 0.00 0.00 0.00 0.01 0.01 0.00 0.00 0.01 0.02 0.02 0.01 0.01 0.03 0.04 0.03 0.03 0.02 0.03 0.04 0.04 0.04 0.06 0.11 0.13
0.00 0.00 0.00 0.00 0.00 0.00 0.00 0.00 0.00 0.00 0.00 0.00 0.00 0.00 0.00 0.00 0.00 0.00 0.00 0.00 0.00 0.00 0.01 0.01 0.01 0.00 0.01 0.01 0.01 0.02 0.02 0.03 0.04 0.03 0.04 0.03 0.02 0.03 0.05 0.05 0.04 0.07 0.11
0.00 0.00 0.00 0.00 0.00 0.00 0.00 0.00 0.00 0.00 0.00 0.00 0.00 0.00 0.00 0.00 0.00 0.00 0.00 0.00 0.00 0.00 0.01 0.02 0.01 0.01 0.01 0.02 0.01 0.02 0.02 0.03 0.03 0.03 0.03 0.04 0.03 0.04 0.05 0.06 0.06 0.05 0.08
0.00 0.00 0.00 0.00 0.00 0.00 0.00 0.00 0.00 0.00 0.00 0.00 0.00 0.00 0.00 0.00 0.00 0.00 0.00 0.00 0.00 0.00 0.01 0.02 0.02 0.01 0.01 0.03 0.03 0.03 0.02 0.03 0.04 0.03 0.04 0.05 0.04 0.03 0.04 0.03 0.03 0.04 0.05
0.00 0.00 0.00 0.00 0.00 0.00 0.00 0.00 0.00 0.00 0.00 0.00 0.00 0.00 0.00 0.00 0.00 0.00 0.00 0.00 0.00 0.00 0.01 0.01 0.02 0.02 0.02 0.02 0.04 0.03 0.03 0.04 0.04 0.04 0.04 0.04 0.03 0.02 0.03 0.03 0.04 0.03 0.03
0.00 0.00 0.00 0.00 0.00 0.00 0.00 0.00 0.00 0.00 0.00 0.00 0.00 0.00 0.00 0.00 0.00 0.00 0.00 0.00 0.00 0.00 0.00 0.01 0.01 0.01 0.02 0.02 0.03 0.03 0.02 0.03 0.04 0.04 0.05 0.04 0.04 0.02 0.03 0.04 0.05 0.04 0.03
0.00 0.00 0.00 0.00 0.00 0.00 0.00 0.00 0.00 0.00 0.00 0.00 0.00 0.00 0.00 0.00 0.00 0.00 0.00 0.00 0.00 0.00 0.00 0.00 0.00 0.01 0.01 0.02 0.02 0.03 0.03 0.04 0.05 0.05 0.05 0.04 0.04 0.03 0.03 0.02 0.02 0.04 0.04
0.00 0.00 0.00 0.00 0.00 0.00 0.00 0.00 0.00 0.00 0.00 0.00 0.00 0.00 0.00 0.00 0.00 0.00 0.00 0.00 0.00 0.00 0.00 0.00 0.01 0.00 0.00 0.01 0.01 0.01 0.02 0.03 0.05 0.04 0.02 0.03 0.04 0.03 0.03 0.03 0.03 0.04 0.04
0.00 0.00 0.00 0.00 0.00 0.00 0.00 0.00 0.00 0.00 0.00 0.00 0.00 0.00 0.00 0.00 0.00 0.00 0.00 0.00 0.00 0.00 0.00 0.00 0.01 0.01 0.01 0.00 0.00 0.01 0.01 0.03 0.03 0.02 0.01 0.01 0.02 0.02 0.02 0.03 0.02 0.03 0.03
0.00 0.00 0.00 0.00 0.00 0.00 0.00 0.00 0.00 0.00 0.00 0.00 0.00 0.00 0.00 0.00 0.00 0.00 0.00 0.00 0.00 0.00 0.00 0.00 0.00 0.01 0.01 0.01 0.00 0.00 0.01 0.03 0.02 0.02 0.01 0.01 0.01 0.01 0.02 0.02 0.02 0.02 0.02
0.00 0.00 0.00 0.00 0.00 0.00 0.00 0.00 0.00 0.00 0.00 0.00 0.00 0.00 0.00 0.00 0.00 0.00 0.00 0.00 0.00 0.00 0.00 0.00 0.00 0.01 0.01 0.01 0.01 0.01 0.02 0.01 0.01 0.01 0.01 0.01 0.01 0.01 0.01 0.02 0.02 0.01 0.01
0.00 0.00 0.00 0.00 0.00 0.00 0.00 0.00 0.00 0.00 0.00 0.00 0.00 0.00 0.00 0.00 0.00 0.00 0.00 0.00 0.00 0.00 0.00 0.00 0.00 0.00 0.01 0.01 0.02 0.02 0.01 0.01 0.01 0.01 0.01 0.01 0.02 0.02 0.01 0.02 0.02 0.01 0.01
0.00 0.00 0.00 0.00 0.00 0.00 0.00 0.00 0.00 0.00 0.00 0.00 0.00 0.00 0.00 0.00 0.00 0.00 0.00 0.00 0.00 0.00 0.00 0.00 0.00 0.00 0.00 0.01 0.01 0.01 0.00 0.01 0.01 0.02 0.01 0.01 0.01 0.02 0.01 0.02 0.02 0.01 0.01
0.00 0.00 0.00 0.00 0.00 0.00 0.00 0.00 0.00 0.00 0.00 0.00 0.00 0.00 0.00 0.00 0.00 0.00 0.00 0.00 0.00 0.00 0.00 0.00 0.00 0.00 0.00 0.01 0.01 0.01 0.00 0.01 0.01 0.02 0.02 0.01 0.02 0.02 0.01 0.01 0.01 0.01 0.01
0.00 0.00 0.00 0.00 0.00 0.00 0.00 0.00 0.00 0.00 0.00 0.00 0.00 0.00 0.00 0.00 0.00 0.00 0.00 0.00 0.00 0.00 0.00 0.00 0.00 0.01 0.00 0.01 0.02 0.02 0.01 0.02 0.02 0.02 0.03 0.02 0.02 0.02 0.01 0.01 0.01 0.01 0.01
0.00 0.00 0.00 0.00 0.00 0.00 0.00 0.00 0.00 0.00 0.00 0.00 0.00 0.00 0.00 0.00 0.00 0.00 0.00 0.00 0.00 0.00 0.00 0.00 0.00 0.00 0.00 0.00 0.01 0.01 0.01 0.01 0.01 0.01 0.02 0.03 0.02 0.01 0.01 0.02 0.01 0.01 0.01
0.00 0.00 0.00 0.00 0.00 0.00 0.00 0.00 0.00 0.00 0.00 0.00 0.00 0.00 0.00 0.00 0.00 0.00 0.00 0.00 0.00 0.00 0.00 0.00 0.00 0.00 0.00 0.00 0.00 0.01 0.01 0.01 0.00 0.00 0.01 0.01 0.01 0.01 0.02 0.01 0.01 0.01 0.01
0.00 0.00 0.00 0.00 0.00 0.00 0.00 0.00 0.00 0.00 0.00 0.00 0.00 0.00 0.00 0.00 0.00 0.00 0.00 0.00 0.00 0.00 0.00 0.00 0.00 0.00 0.00 0.00 0.00 0.00 0.00 0.00 0.00 0.00 0.00 0.01 0.01 0.01 0.01 0.01 0.01 0.01 0.01
0.00 0.00 0.00 0.00 0.00 0.00 0.00 0.00 0.00 0.00 0.00 0.00 0.00 0.00 0.00 0.00 0.00 0.00 0.00 0.00 0.00 0.00 0.00 0.00 0.00 0.00 0.00 0.00 0.00 0.00 0.00 0.00 0.00 0.00 0.00 0.00 0.01 0.01 0.01 0.01 0.01 0.01 0.01
0.00 0.00 0.00 0.00 0.00 0.00 0.00 0.00 0.00 0.00 0.00 0.00 0.00 0.00 0.00 0.00 0.00 0.00 0.00 0.00 0.00 0.00 0.00 0.00 0.00 0.00 0.00 0.00 0.00 0.00 0.00 0.00 0.00 0.00 0.00 0.00 0.01 0.01 0.01 0.01 0.01 0.01 0.01
0.00 0.00 0.00 0.00 0.00 0.00 0.00 0.00 0.00 0.00 0.00 0.00 0.00 0.00 0.00 0.00 0.00 0.00 0.00 0.00 0.00 0.00 0.00 0.00 0.00 0.00 0.00 0.00 0.00 0.00 0.00 0.00 0.00 0.00 0.00 0.00 0.00 0.00 0.00 0.00 0.00 0.00 0.00
0.00 0.00 0.00 0.00 0.00 0.00 0.00 0.00 0.00 0.00 0.00 0.00 0.00 0.00 0.00 0.00 0.00 0.00 0.00 0.00 0.00 0.00 0.00 0.00 0.00 0.00 0.00 0.00 0.00 0.00 0.00 0.00 0.00 0.00 0.00 0.00 0.00 0.00 0.00 0.00 0.00 0.00 0.00
MSLP
1011.14 1011.27 1011.43 1011.59 1011.73 1011.88 1012.02 1012.18 1012.36 1012.56 1012.78 1012.99 1013.18 1013.31 1013.38 1013.36 1013.26 1013.11 1012.91 1012.69 1012.47 1012.26 1012.08 1011.93 1011.81 1011.71 1011.63 1011.56 1011.51 1011.47 1011.45 1011.45 1011.44 1011.44 1011.43 1011.39 1011.33 1011.23 1011.11 1010.97 1010.82 1010.69 1010.59
1011.10 1011.29 1011.48 1011.64 1011.77 1011.87 1011.96 1012.08 1012.25 1012.46 1012.73 1013.01 1013.27 1013.47 1013.59 1013.60 1013.50 1013.31 1013.05 1012.77 1012.50 1012.26 1012.07 1011.93 1011.83 1011.76 1011.71 1011.65 1011.59 1011.54 1011.48 1011.44 1011.42 1011.41 1011.41 1011.42 1011.40 1011.36 1011.29 1011.18 1011.05 1010.91 1010.79
1011.01 1011.27 1011.50 1011.68 1011.79 1011.86 1011.91 1012.00 1012.14 1012.37 1012.67 1013.00 1013.34 1013.61 1013.79 1013.83 1013.74 1013.53 1013.24 1012.91 1012.60 1012.33 1012.13 1011.99 1011.91 1011.86 1011.81 1011.76 1011.69 1011.60 1011.52 1011.45 1011.40 1011.39 1011.41 1011.45 1011.50 1011.52 1011.51 1011.45 1011.34 1011.21 1011.07
1010.89 1011.21 1011.50 1011.70 1011.82 1011.87 1011.88 1011.93 1012.05 1012.27 1012.59 1012.97 1013.36 1013.70 1013.93 1014.01 1013.94 1013.74 1013.43 1013.09 1012.75 1012.47 1012.26 1012.12 1012.04 1012.00 1011.95 1011.89 1011.81 1011.70 1011.58 1011.49 1011.42 1011.41 1011.45 1011.52 1011.62 1011.70 1011.75 1011.74 1011.67 1011.55 1011.41
1010.74 1011.12 1011.46 1011.70 1011.83 1011.87 1011.86 1011.88 1011.97 1012.17 1012.49 1012.89 1013.31 1013.69 1013.97 1014.10 1014.07 1013.89 1013.60 1013.26 1012.93 1012.64 1012.43 1012.29 1012.22 1012.18 1012.14 1012.07 1011.97 1011.84 1011.70 1011.58 1011.50 1011.48 1011.53 1011.63 1011.76 1011.89 1011.99 1012.02 1011.99 1011.89 1011.75
1010.56 1010.99 1011.38 1011.66 1011.81 1011.85 1011.83 1011.81 1011.87 1012.05 1012.35 1012.74 1013.17 1013.58 1013.90 1014.08 1014.09 1013.95 1013.70 1013.39 1013.08 1012.81 1012.61 1012.49 1012.42 1012.39 1012.35 1012.28 1012.17 1012.03 1011.88 1011.75 1011.65 1011.63 1011.67 1011.78 1011.93 1012.08 1012.21 1012.28 1012.27 1012.20 1012.06
1010.36 1010.81 1011.23 1011.54 1011.72 1011.77 1011.74 1011.71 1011.74 1011.89 1012.15 1012.52 1012.95 1013.36 1013.71 1013.92 1013.98 1013.89 1013.70 1013.44 1013.17 1012.94 1012.77 1012.67 1012.62 1012.60 1012.57 1012.51 1012.41 1012.27 1012.11 1011.97 1011.87 1011.84 1011.87 1011.97 1012.11 1012.27 1012.40 1012.49 1012.51 1012.45 1012.33
1010.11 1010.56 1010.99 1011.33 1011.53 1011.60 1011.59 1011.55 1011.57 1011.68 1011.91 1012.25 1012.65 1013.06 1013.41 1013.65 1013.76 1013.73 1013.59 1013.40 1013.19 1013.01 1012.88 1012.81 1012.79 1012.78 1012.77 1012.73 1012.65 1012.53 1012.38 1012.24 1012.14 1012.09 1012.11 1012.18 1012.30 1012.44 1012.57 1012.66 1012.69 1012.66 1012.56
1009.81 1010.23 1010.65 1011.00 1011.23 1011.33 1011.35 1011.33 1011.34 1011.44 1011.64 1011.95 1012.32 1012.71 1013.05 1013.31 1013.45 1013.48 1013.41 1013.28 1013.13 1013.00 1012.92 1012.89 1012.89 1012.92 1012.93 1012.92 1012.86 1012.77 1012.65 1012.53 1012.43 1012.37 1012.37 1012.41 1012.50 1012.61 1012.72 1012.80 1012.84 1012.83 1012.77
1009.46 1009.82 1010.21 1010.56 1010.81 1010.95 1011.00 1011.02 1011.06 1011.17 1011.36 1011.64 1011.99 1012.35 1012.68 1012.95 1013.11 1013.18 1013.16 1013.10 1013.01 1012.93 1012.89 1012.90 1012.93 1012.99 1013.03 1013.05 1013.03 1012.98 1012.89 1012.79 1012.71 1012.65 1012.63 1012.65 1012.70 1012.78 1012.86 1012.94 1012.99 1013.00 1012.98
1009.05 1009.34 1009.69 1010.02 1010.29 1010.47 1010.58 1010.65 1010.74 1010.88 1011.08 1011.36 1011.68 1012.03 1012.35 1012.61 1012.79 1012.88 1012.91 1012.89 1012.85 1012.82 1012.82 1012.85 1012.91 1012.98 1013.06 1013.11 1013.13 1013.11 1013.07 1013.01 1012.95 1012.89 1012.86 1012.86 1012.89 1012.94 1013.00 1013.07 1013.13 1013.17 1013.20
1008.63 1008.84 1009.13 1009.44 1009.71 1009.93 1010.09 1010.24 1010.39 1010.57 1010.81 1011.10 1011.42 1011.75 1012.06 1012.31 1012.50 1012.61 1012.67 1012.68 1012.68 1012.68 1012.71 1012.76 1012.84 1012.93 1013.02 1013.10 1013.16 1013.18 1013.18 1013.16 1013.12 1013.08 1013.05 1013.04 1013.05 1013.08 1013.12 1013.19 1013.26 1013.34 1013.41
1008.22 1008.35 1008.57 1008.84 1009.11 1009.35 1009.57 1009.79 1010.01 1010.26 1010.54 1010.85 1011.18 1011.51 1011.80 1012.06 1012.25 1012.38 1012.46 1012.50 1012.52 1012.55 1012.59 1012.65 1012.73 1012.83 1012.94 1013.03 1013.11 1013.17 1013.21 1013.22 1013.22 1013.20 1013.18 1013.17 1013.16 1013.18 1013.22 1013.28 1013.37 1013.47 1013.58
1007.85 1007.90 1008.06 1008.27 1008.52 1008.77 1009.03 1009.30 1009.59 1009.90 1010.23 1010.57 1010.92 1011.25 1011.55 1011.81 1012.01 1012.16 1012.26 1012.33 1012.38 1012.42 1012.48 1012.54 1012.63 1012.72 1012.82 1012.92 1013.02 1013.10 1013.16 1013.21 1013.23 1013.24 1013.24 1013.23 1013.23 1013.24 1013.27 1013.33 1013.42 1013.54 1013.67
1007.55 1007.53 1007.61 1007.76 1007.97 1008.21 1008.49 1008.79 1009.12 1009.47 1009.84 1010.22 1010.59 1010.94 1011.25 1011.52 1011.75 1011.92 1012.06 1012.16 1012.24 1012.31 1012.37 1012.44 1012.52 1012.60 1012.69 1012.78 1012.87 1012.96 1013.04 1013.11 1013.17 1013.20 1013.22 1013.23 1013.23 1013.24 1013.26 1013.32 1013.41 1013.53 1013.67
1007.33 1007.24 1007.25 1007.32 1007.47 1007.68 1007.94 1008.25 1008.60 1008.97 1009.37 1009.76 1010.15 1010.52 1010.85 1011.15 1011.41 1011.62 1011.80 1011.95 1012.08 1012.18 1012.26 1012.33 1012.40 1012.47 1012.53 1012.61 1012.69 1012.78 1012.87 1012.95 1013.03 1013.08 1013.13 1013.15 1013.16 1013.17 1013.20 1013.24 1013.31 1013.42 1013.55
1007.18 1007.04 1006.96 1006.96 1007.04 1007.19 1007.40 1007.68 1008.02 1008.38 1008.77 1009.17 1009.57 1009.95 1010.31 1010.65 1010.95 1011.22 1011.47 1011.68 1011.85 1012.00 1012.11 1012.20 1012.26 1012.31 1012.35 1012.40 1012.46 1012.53 1012.62 1012.71 1012.80 1012.89 1012.96 1013.00 1013.03 1013.05 1013.07 1013.10 1013.15 1013.23 1013.33
1007.10 1006.90 1006.76 1006.68 1006.68 1006.75 1006.90 1007.12 1007.40 1007.73 1008.09 1008.47 1008.86 1009.25 1009.63 1010.00 1010.36 1010.70 1011.01 1011.30 1011.54 1011.74 1011.89 1012.00 1012.06 1012.10 1012.12 1012.14 1012.17 1012.23 1012.30 1012.40 1012.51 1012.61 1012.71 1012.78 1012.84 1012.87 1012.90 1012.92 1012.95 1012.99 1013.06
1007.07 1006.84 1006.63 1006.48 1006.40 1006.39 1006.45 1006.59 1006.80 1007.06 1007.37 1007.70 1008.06 1008.43 1008.82 1009.23 1009.63 1010.04 1010.43 1010.79 1011.10 1011.36 1011.56 1011.69 1011.77 1011.80 1011.80 1011.80 1011.81 1011.84 1011.91 1012.01 1012.13 1012.26 1012.39 1012.50 1012.59 1012.65 1012.69 1012.71 1012.73 1012.75 1012.77
1007.08 1006.82 1006.57 1006.36 1006.20 1006.11 1006.09 1006.14 1006.26 1006.43 1006.65 1006.92 1007.22 1007.56 1007.94 1008.36 1008.80 1009.25 1009.70 1010.13 1010.52 1010.84 1011.09 1011.25 1011.35 1011.38 1011.38 1011.35 1011.35 1011.36 1011.42 1011.53 1011.67 1011.83 1011.99 1012.15 1012.28 1012.38 1012.45 1012.49 1012.51 1012.51 1012.52
1007.13 1006.85 1006.57 1006.32 1006.11 1005.95 1005.85 1005.81 1005.82 1005.89 1006.02 1006.19 1006.41 1006.70 1007.03 1007.43 1007.88 1008.36 1008.85 1009.33 1009.77 1010.15 1010.45 1010.65 1010.78 1010.82 1010.82 1010.80 1010.79 1010.80 1010.86 1010.97 1011.13 1011.32 1011.53 1011.74 1011.92 1012.07 1012.18 1012.25 1012.29 1012.30 1012.30
1007.18 1006.91 1006.62 1006.35 1006.11 1005.90 1005.73 1005.60 1005.52 1005.49 1005.50 1005.56 1005.68 1005.88 1006.15 1006.49 1006.91 1007.38 1007.89 1008.39 1008.87 1009.30 1009.64 1009.89 1010.04 1010.12 1010.14 1010.14 1010.13 1010.15 1010.22 1010.35 1010.53 1010.75 1011.00 1011.25 1011.49 1011.70 1011.86 1011.98 1012.05 1012.10 1012.11
1007.23 1006.96 1006.69 1006.43 1006.17 1005.93 1005.72 1005.52 1005.36 1005.21 1005.11 1005.05 1005.06 1005.14 1005.30 1005.57 1005.92 1006.35 1006.84 1007.34 1007.84 1008.29 1008.67 1008.97 1009.17 1009.29 1009.35 1009.38 1009.40 1009.45 1009.54 1009.69 1009.89 1010.14 1010.43 1010.72 1011.01 1011.27 1011.48 1011.66 1011.79 1011.87 1011.93
1007.23 1007.00 1006.76 1006.52 1006.28 1006.03 1005.79 1005.55 1005.30 1005.06 1004.84 1004.66 1004.53 1004.48 1004.53 1004.68 1004.94 1005.30 1005.73 1006.20 1006.69 1007.16 1007.58 1007.92 1008.18 1008.36 1008.48 1008.57 1008.64 1008.72 1008.85 1009.02 1009.25 1009.52 1009.83 1010.16 1010.48 1010.78 1011.05 1011.28 1011.47 1011.61 1011.72
1007.18 1006.98 1006.79 1006.58 1006.37 1006.14 1005.89 1005.61 1005.31 1004.99 1004.66 1004.36 1004.10 1003.91 1003.82 1003.84 1003.98 1004.24 1004.59 1005.02 1005.48 1005.95 1006.39 1006.78 1007.10 1007.36 1007.56 1007.72 1007.86 1008.00 1008.17 1008.38 1008.63 1008.93 1009.25 1009.59 1009.94 1010.27 1010.58 1010.86 1011.10 1011.30 1011.47
1007.06 1006.91 1006.76 1006.60 1006.43 1006.23 1005.98 1005.68 1005.33 1004.95 1004.53 1004.12 1003.73 1003.41 1003.18 1003.06 1003.07 1003.21 1003.47 1003.82 1004.24 1004.70 1005.16 1005.59 1005.98 1006.32 1006.61 1006.86 1007.09 1007.31 1007.54 1007.79 1008.07 1008.38 1008.71 1009.06 1009.41 1009.76 1010.10 1010.41 1010.70 1010.96 1011.19
Thickness
5752 5754 5753 5751 5748 5745 5741 5738 5735 5731 5728 5723 5718 5714 5710 5708 5706 5703 5701 5698 5695 5693 5690 5687 5685 5683 5681 5680 5680 5680 5680 5680 5682 5683 5684 5689 5695 5699 5704 5708 5711 5715 5718
5748 5749 5749 5748 5746 5742 5740 5737 5734 5731 5728 5724 5719 5715 5711 5707 5704 5701 5699 5696 5694 5691 5689 5685 5682 5680 5678 5677 5677 5676 5675 5676 5678 5677 5676 5677 5682 5691 5698 5702 5705 5709 5713
5749 5748 5746 5745 5743 5741 5739 5738 5734 5731 5728 5724 5719 5714 5709 5704 5701 5698 5696 5694 5692 5690 5687 5684 5682 5679 5677 5675 5674 5674 5672 5671 5673 5675 5673 5671 5671 5679 5688 5694 5699 5703 5707
5752 5749 5746 5744 5743 5742 5741 5738 5734 5731 5727 5723 5718 5711 5705 5700 5698 5696 5694 5693 5691 5689 5686 5684 5681 5679 5676 5674 5673 5672 5671 5670 5668 5671 5673 5674 5675 5674 5677 5685 5692 5697 5701
5753 5750 5748 5746 5745 5743 5741 5737 5733 5730 5726 5722 5717 5711 5705 5701 5698 5696 5693 5691 5689 5688 5686 5683 5681 5678 5676 5674 5672 5671 5670 5669 5668 5668 5669 5671 5672 5674 5673 5675 5682 5689 5695
5753 5751 5749 5746 5743 5742 5740 5736 5732 5728 5725 5721 5717 5712 5706 5701 5698 5694 5691 5689 5687 5686 5685 5683 5680 5678 5675 5673 5672 5671 5670 5668 5668 5668 5668 5669 5669 5670 5672 5673 5676 5680 5687
5751 5748 5745 5743 5741 5740 5738 5735 5731 5727 5724 5721 5716 5712 5707 5703 5698 5695 5691 5688 5686 5684 5683 5682 5679 5677 5675 5674 5672 5670 5669 5669 5668 5668 5668 5669 5670 5672 5673 5673 5673 5676 5681
5750 5749 5747 5745 5742 5740 5737 5734 5731 5727 5724 5720 5716 5713 5708 5704 5700 5697 5693 5690 5687 5685 5684 5682 5680 5677 5676 5674 5672 5670 5669 5669 5668 5669 5669 5669 5670 5672 5673 5673 5672 5672 5674
5749 5749 5748 5745 5743 5740 5738 5735 5731 5728 5724 5721 5717 5712 5709 5705 5701 5699 5695 5692 5689 5687 5685 5682 5680 5677 5676 5674 5672 5670 5669 5669 5668 5668 5668 5669 5670 5671 5673 5674 5674 5672 5669
5749 5749 5748 5746 5744 5742 5739 5736 5732 5728 5725 5721 5717 5714 5709 5706 5703 5699 5696 5693 5690 5688 5685 5682 5680 5677 5675 5673 5671 5669 5669 5668 5667 5667 5668 5668 5669 5670 5672 5673 5674 5674 5672
5749 5749 5747 5746 5744 5741 5738 5735 5732 5728 5724 5721 5717 5714 5710 5707 5703 5700 5697 5694 5691 5688 5685 5683 5680 5677 5674 5673 5671 5669 5668 5667 5667 5667 5667 5667 5669 5669 5670 5671 5672 5672 5672
5751 5750 5748 5744 5741 5739 5737 5734 5731 5728 5725 5721 5717 5713 5710 5706 5703 5700 5697 5695 5692 5689 5686 5683 5680 5677 5675 5673 5671 5669 5668 5667 5666 5666 5666 5666 5668 5667 5668 5668 5669 5670 5671
5749 5747 5744 5742 5740 5738 5736 5734 5731 5728 5725 5721 5717 5713 5709 5706 5703 5700 5698 5695 5692 5689 5687 5683 5680 5677 5675 5673 5671 5670 5668 5667 5666 5666 5665 5665 5666 5665 5665 5666 5667 5667 5669
5746 5744 5742 5741 5740 5738 5736 5733 5731 5728 5725 5720 5716 5712 5709 5706 5703 5700 5698 5695 5692 5689 5686 5683 5681 5678 5676 5674 5672 5670 5668 5667 5666 5666 5665 5665 5665 5665 5665 5665 5665 5665 5665
5744 5743 5741 5740 5738 5737 5735 5732 5730 5727 5724 5719 5715 5712 5709 5706 5703 5700 5697 5695 5692 5690 5687 5683 5681 5679 5677 5675 5672 5670 5669 5667 5666 5665 5665 5665 5666 5666 5665 5665 5664 5664 5663
5743 5743 5742 5740 5738 5736 5734 5732 5729 5726 5723 5719 5715 5712 5709 5705 5702 5699 5697 5694 5691 5688 5686 5683 5680 5678 5678 5677 5675 5672 5668 5666 5665 5664 5663 5664 5664 5665 5665 5666 5665 5664 5661
5743 5743 5741 5740 5739 5738 5736 5732 5730 5726 5722 5718 5715 5711 5708 5704 5702 5699 5695 5692 5690 5687 5684 5682 5680 5678 5677 5677 5675 5673 5669 5666 5664 5662 5661 5662 5662 5662 5662 5662 5663 5662 5662
5742 5742 5742 5741 5740 5739 5735 5732 5728 5724 5720 5717 5714 5711 5707 5704 5701 5697 5694 5691 5689 5686 5683 5681 5679 5677 5676 5676 5674 5672 5668 5665 5663 5661 5660 5659 5659 5660 5660 5659 5658 5657 5657
5743 5742 5742 5741 5739 5736 5734 5729 5724 5721 5717 5714 5712 5710 5706 5703 5699 5695 5693 5690 5687 5685 5682 5680 5678 5675 5674 5674 5673 5670 5666 5662 5660 5659 5658 5658 5657 5659 5658 5656 5654 5653 5653
5739 5739 5739 5737 5734 5733 5730 5725 5721 5717 5715 5714 5712 5710 5706 5702 5698 5695 5692 5689 5686 5683 5681 5678 5676 5674 5672 5672 5671 5668 5663 5659 5657 5656 5656 5657 5656 5656 5656 5653 5651 5649 5649
5734 5735 5734 5731 5730 5729 5726 5721 5718 5716 5716 5714 5710 5707 5704 5701 5698 5694 5690 5687 5684 5680 5678 5675 5673 5671 5669 5669 5668 5666 5661 5658 5655 5653 5652 5652 5653 5653 5652 5650 5648 5648 5647
5726 5726 5725 5725 5725 5723 5720 5717 5715 5717 5714 5710 5706 5703 5701 5698 5695 5690 5686 5683 5680 5676 5673 5670 5668 5666 5666 5665 5664 5663 5660 5657 5653 5651 5649 5649 5649 5649 5648 5646 5645 5644 5643
5716 5717 5717 5717 5717 5717 5715 5712 5712 5711 5708 5704 5701 5699 5696 5694 5691 5686 5682 5678 5675 5672 5669 5666 5663 5661 5661 5660 5661 5659 5657 5654 5650 5648 5647 5646 5645 5643 5642 5641 5640 5638 5635
5705 5707 5707 5707 5708 5709 5709 5708 5708 5705 5702 5698 5696 5693 5690 5687 5684 5682 5679 5675 5671 5668 5665 5662 5659 5657 5656 5655 5654 5653 5651 5649 5646 5644 5642 5640 5638 5636 5635 5633 5631 5630 5628
5694 5696 5696 5697 5700 5701 5701 5702 5700 5698 5694 5692 5690 5687 5684 5681 5677 5675 5673 5671 5670 5668 5664 5661 5658 5654 5652 5653 5652 5649 5646 5644 5641 5638 5634 5631 5629 5627 5625 5623 5622 5621 5619
5682 5684 5685 5687 5689 5691 5692 5693 5693 5691 5687 5683 5681 5679 5676 5672 5670 5666 5663 5663 5663 5663 5661 5659 5656 5653 5652 5650 5648 5645 5643 5640 5637 5631 5627 5623 5621 5618 5616 5615 5613 5611 5610